This is the latest recevied weather packets stored in our database for station/object KN6WGU. If no packets are shown the sender has not sent any weather packets the latest 10 day(s).
| Time | Temp. | Humidity | Pressure | Rain* | Wind** | Luminosity | Snow |
|---|---|---|---|---|---|---|---|
| 1787777809 | 27.22° C | 52% | 1006.4 hPa | 0 mm | - | 100 W/m² | - |
| 1787777507 | 26.67° C | 53% | 1006.6 hPa | 0 mm | - | 114 W/m² | - |
| 1787777200 | 26.67° C | 54% | 1006.6 hPa | 0 mm | - | 187 W/m² | - |
| 1787776899 | 27.22° C | 54% | 1006.7 hPa | 0 mm | - | 267 W/m² | - |
| 1787776599 | 27.22° C | 54% | 1006.8 hPa | 0 mm | - | 432 W/m² | - |
| 1787776298 | 27.22° C | 54% | 1006.8 hPa | 0 mm | - | 302 W/m² | - |
| 1787775996 | 27.22° C | 56% | 1006.9 hPa | 0 mm | - | 303 W/m² | - |
| 1787775692 | 27.22° C | 53% | 1006.8 hPa | 0 mm | - | 438 W/m² | - |
| 1787775390 | 27.22° C | 52% | 1006.9 hPa | 0 mm | - | 286 W/m² | - |
| 1787775085 | 27.78° C | 51% | 1007 hPa | 0 mm | - | 203 W/m² | - |
| 1787774784 | 27.78° C | 53% | 1007 hPa | 0 mm | - | 523 W/m² | - |
| 1787774479 | 27.22° C | 53% | 1006.9 hPa | 0 mm | - | 253 W/m² | - |
| 1787774178 | 27.78° C | 53% | 1007.2 hPa | 0 mm | - | 191 W/m² | - |
| 1787773877 | 27.22° C | 54% | 1007.2 hPa | 0 mm | - | 214 W/m² | - |
| 1787773575 | 26.67° C | 55% | 1007.3 hPa | 0 mm | - | 365 W/m² | - |
| 1787773272 | 27.78° C | 52% | 1007.5 hPa | 0 mm | - | 165 W/m² | - |
| 1787772967 | 27.78° C | 55% | 1007.4 hPa | 0 mm | - | 595 W/m² | - |
| 1787772663 | 27.78° C | 53% | 1007.6 hPa | 0 mm | - | 597 W/m² | - |
| 1787772360 | 27.78° C | 53% | 1007.4 hPa | 0 mm | - | 436 W/m² | - |
| 1787772060 | 28.33° C | 53% | 1007.5 hPa | 0 mm | - | 145 W/m² | - |
| 1787771755 | 27.78° C | 54% | 1007.4 hPa | 0 mm | - | 621 W/m² | - |
| 1787771454 | 27.22° C | 54% | 1007.5 hPa | 0 mm | - | 638 W/m² | - |
| 1787771153 | 27.22° C | 56% | 1007.5 hPa | 0 mm | - | 112 W/m² | - |
| 1787770848 | 27.78° C | 53% | 1007.6 hPa | 0 mm | - | 645 W/m² | - |
| 1787770547 | 28.33° C | 58% | 1007.7 hPa | 0 mm | - | 574 W/m² | - |
* Rain latest hour (hover to see other rain measurements)
** Current wind speed in m/s (hover to see current wind gust speed)